Regional Weather Roundup
Issued by NWS Sioux Falls, SD

Home | Current Version | Previous Version | Graphics & Text | Print | Product List | Glossary On
Versions: 1 2 3 4 5 6 7 8 9 10 11 12 13 14 15 16 17 18 19 20 21 22 23 24 25 26 27 28 29 30 31 32 33 34 35 36 37 38 39 40 41 42 43 44 45 46 47 48 49 50
000
ASUS43 KFSD 012210
RWRFSD

WEATHER ROUNDUP FOR SE SOUTH DAKOTA/SW MINNESOTA/NW IOWA
NATIONAL WEATHER SERVICE SIOUX FALLS SD
500 PM CDT WED OCT 01 2014

NOTE: "FAIR" INDICATES FEW OR NO CLOUDS BELOW 12,000 FEET WITH NO
SIGNIFICANT WEATHER AND OR OBSTRUCTIONS TO VISIBILITY.


SDZ038>040-050-052>070-012300-
SOUTHEAST SOUTH DAKOTA

CITY           SKY/WX    TMP DP  RH WIND       PRES   REMARKS
CHAMBERLAIN    PTSUNNY   71  48  43 NW9       29.76S
HURON          PTSUNNY   72  47  40 NW12      29.73R
MADISON        FAIR      72  52  49 W8        29.75R
MITCHELL       MOSUNNY   75  49  39 W10       29.74R
SIOUX FALLS    PTSUNNY   74  53  48 NW10      29.73R
WINNER         MOCLDY    71  47  42 NW15      29.79R
YANKTON        MOSUNNY   73  54  49 NW8       29.73R
$$

MNZ071-072-080-081-089-090-097-098-012300-
SOUTHWEST MINNESOTA

CITY           SKY/WX    TMP DP  RH WIND       PRES   REMARKS
FAIRMONT       SUNNY     70  57  64 CALM      29.75S
JACKSON        SUNNY     72  55  56 S7        29.75S
LUVERNE        MOSUNNY   77  54  44 W10       29.72S
MARSHALL       MOSUNNY   75  52  43 NW14      29.69R
MONTEVIDEO     MOSUNNY   66  61  82 S7        29.71R
PIPESTONE      MOSUNNY   70  57  64 CALM      29.73F
REDWOOD FALLS  MOSUNNY   70  57  63 SE8       29.71S
TRACY          PTSUNNY   72  61  68 S7        29.71S
WINDOM         SUNNY     72  57  60 S6        29.73S
WORTHINGTON    MOSUNNY   72  57  60 S8        29.73F
$$

IAZ001>003-012>014-020>022-031-032-NEZ013-014-SDZ071-012300-
NORTHWEST IOWA

CITY           SKY/WX    TMP DP  RH WIND       PRES   REMARKS
CHEROKEE       MOSUNNY   74  59  58 CALM      29.73R
DENISON        PTSUNNY   73  63  68 SE5       29.72R
ESTHERVILLE    SUNNY     69  58  67 S7        29.74F
LE MARS        PTSUNNY   75  59  57 S5        29.72S
ORANGE CITY    MOSUNNY   75  55  50 S6        29.73R
SHELDON        PTSUNNY   73  57  56 S7        29.71S
SIOUX CITY     TSTM      73  61  65 S8        29.72R
SPENCER        MOSUNNY   71  60  68 E7        29.74F
STORM LAKE     MOSUNNY   75  57  53 VRB3      29.75R
$$

ABBREVIATIONS USED IN REMARKS
   TC - TEMPERATURE IN CELSIUS
  WCI - WIND CHILL INDEX
   HX - HEAT INDEX
  VSB - VISIBILITY




USA.gov is the U.S. government's official web portal to all federal, state and local government web resources and services.